Location: Bagnolo San Vito
(45.0833°N, 10.8833°E)
Time: 00:13:25
(UTC+00:00)

Okean 1 - Pass Details

Date: 03 March 2021
Orbit: 538 x 554 km, 82.5° (Epoch: 17 April)

Event Time Altitude Azimuth Distance (km) Brightness Sun altitude
Rises 17:54:24 0° 353° (N) 2,732 7.0 -9.2°
Reaches altitude 10° 17:56:35 10° 355° (N) 1,836 6.1 -9.6°
Maximum altitude 18:00:37 73° 81° (E) 581 3.2 -10.3°
Drops below altitude 10° 18:04:38 10° 166° (SSE) 1,828 5.8 -11.0°
Sets 18:06:48 0° 168° (SSE) 2,719 6.7 -11.4°
